Zurück zum Katalog

DELTA 1 DEB

AktivSSO
NORAD 7076·DEBRIS·🇺🇸 United States

Gestartet Nov 6, 1973 von Vandenberg Space Force Base

Loading…

Nächste Überflüge (nächste 24 Stunden)

TLE

AktuellSource: Space-Track

Epoche: Sep 14, 2026, 11:46 UTC

1 07076U 73086BU  26257.49053483 -.00000038  00000-0  65096-4 0  9994
2 07076 102.3050 259.4593 0011764 267.8281 259.6736 12.39871185391380

Verfolge DELTA 1 DEB in Echtzeit mit AllMySat

Download on the App Store